カタログに戻る

STARLINK-30456

運用中通信VLEO
NORAD 57943·PAYLOAD·🇺🇸 United States

打ち上げ Sep 25, 2023 から Vandenberg Space Force Base

Loading…

次のパス (今後24時間)

TLE

最新Source: CelesTrak SupGP

元期: Sep 15, 2026, 02:38 UTC

1 57943C 23148J   26258.11020833 -.00011093  00000+0 -32800-3 0  2586
2 57943  53.1572 223.1802 0001413  90.0432 185.4543 15.34371739    12

AllMySatでSTARLINK-30456をリアルタイム追跡

Download on the App Store